| time (UTC) | temp F | wind direction | speed knots | gust knots | rain 1hr in | rain 24hr in | rain mn in | humidity % | barometer mb |
| 20260506222015 | 41 | 42 | 0.0 | 0.0 | 0.00 | 0.00 | 0.00 | 85 | 1015.0 |
| 20260506221515 | 41 | 42 | 0.0 | 0.0 | 0.00 | 0.00 | 0.00 | 85 | 1015.0 |
| 20260506221013 | 41 | 42 | 0.0 | 0.0 | 0.00 | 0.00 | 0.00 | 84 | 1015.0 |
| 20260506220513 | 42 | 42 | 0.0 | 0.0 | 0.00 | 0.00 | 0.00 | 84 | 1014.9 |
| 20260506220013 | 42 | 42 | 0.0 | 0.0 | 0.00 | 0.00 | 0.00 | 84 | 1014.9 |
| 20260506215512 | 42 | 42 | 0.0 | 0.0 | 0.00 | 0.00 | 0.00 | 83 | 1014.9 |
| 20260506215111 | 42 | 42 | 0.0 | 0.0 | 0.00 | 0.00 | 0.00 | 83 | 1014.9 |
| 20260506214510 | 42 | 42 | 0.0 | 0.0 | 0.00 | 0.00 | 0.00 | 83 | 1014.8 |
| 20260506214010 | 42 | 42 | 0.0 | 0.0 | 0.00 | 0.00 | 0.00 | 83 | 1014.8 |
| 20260506213509 | 42 | 42 | 0.0 | 0.0 | 0.00 | 0.00 | 0.00 | 83 | 1014.9 |
| 20260506213016 | 43 | 42 | 0.0 | 0.0 | 0.00 | 0.00 | 0.00 | 82 | 1014.9 |
| 20260506212513 | 43 | 42 | 0.0 | 0.0 | 0.00 | 0.00 | 0.00 | 82 | 1014.8 |
| 20260506212007 | 43 | 42 | 0.0 | 0.0 | 0.00 | 0.00 | 0.00 | 82 | 1014.8 |
| 20260506211506 | 43 | 42 | 0.0 | 0.0 | 0.00 | 0.00 | 0.00 | 82 | 1014.8 |
| 20260506211008 | 43 | 42 | 0.0 | 0.0 | 0.00 | 0.00 | 0.00 | 82 | 1014.8 |
| 20260506210505 | 44 | 42 | 0.0 | 0.0 | 0.00 | 0.00 | 0.00 | 81 | 1014.7 |
| 20260506210004 | 44 | 42 | 0.0 | 0.0 | 0.00 | 0.00 | 0.00 | 80 | 1014.6 |
| 20260506205503 | 45 | 42 | 0.0 | 0.0 | 0.00 | 0.00 | 0.00 | 79 | 1014.6 |
| 20260506205001 | 45 | 42 | 0.0 | 0.0 | 0.00 | 0.00 | 0.00 | 79 | 1014.6 |
| 20260506204600 | 45 | 42 | 0.0 | 0.0 | 0.00 | 0.00 | 0.00 | 78 | 1014.5 |
| 20260506204059 | 45 | 42 | 0.0 | 0.0 | 0.00 | 0.00 | 0.00 | 77 | 1014.4 |
| 20260506203559 | 46 | 42 | 0.0 | 0.0 | 0.00 | 0.00 | 0.00 | 75 | 1014.4 |
| 20260506203143 | 46 | 42 | 0.0 | 1.7 | 0.00 | 0.00 | 0.00 | 74 | 1014.4 |
| 20260506202559 | 47 | 42 | 0.0 | 1.7 | 0.00 | 0.00 | 0.00 | 72 | 1014.4 |
| 20260506202058 | 48 | 42 | 0.0 | 1.7 | 0.00 | 0.00 | 0.00 | 71 | 1014.3 |
| 20260506201558 | 48 | 32 | 0.0 | 1.7 | 0.00 | 0.00 | 0.00 | 70 | 1014.3 |
| 20260506201101 | 49 | 43 | 0.0 | 3.5 | 0.00 | 0.00 | 0.00 | 69 | 1014.3 |
| 20260506200557 | 50 | 51 | 0.0 | 3.5 | 0.00 | 0.00 | 0.00 | 68 | 1014.2 |
| 20260506200057 | 51 | 55 | 0.0 | 1.7 | 0.00 | 0.00 | 0.00 | 67 | 1014.3 |
| 20260506195557 | 51 | 26 | 0.0 | 1.7 | 0.00 | 0.00 | 0.00 | 67 | 1014.2 |
| 20260506195058 | 51 | 21 | 0.0 | 1.7 | 0.00 | 0.00 | 0.00 | 68 | 1014.1 |
| 20260506194556 | 51 | 345 | 0.0 | 1.7 | 0.00 | 0.00 | 0.00 | 68 | 1014.1 |
| 20260506194054 | 51 | 40 | 0.0 | 1.7 | 0.00 | 0.00 | 0.00 | 67 | 1014.0 |
| 20260506193553 | 51 | 53 | 0.0 | 1.7 | 0.00 | 0.00 | 0.00 | 67 | 1014.0 |
| 20260506193053 | 51 | 42 | 0.0 | 1.7 | 0.00 | 0.00 | 0.00 | 67 | 1013.9 |
| 20260506192554 | 52 | 360 | 0.0 | 2.6 | 0.00 | 0.00 | 0.00 | 66 | 1013.9 |
| 20260506192052 | 52 | 13 | 0.0 | 1.7 | 0.00 | 0.00 | 0.00 | 67 | 1013.9 |
| 20260506191554 | 52 | 355 | 0.0 | 1.7 | 0.00 | 0.00 | 0.00 | 65 | 1013.9 |
| 20260506191053 | 52 | 59 | 0.0 | 1.7 | 0.00 | 0.00 | 0.00 | 65 | 1013.8 |
| 20260506190554 | 52 | 30 | 0.0 | 1.7 | 0.00 | 0.00 | 0.00 | 65 | 1013.7 |
| 20260506190055 | 52 | 43 | 0.0 | 1.7 | 0.00 | 0.00 | 0.00 | 66 | 1013.8 |
| 20260506185552 | 52 | 9 | 0.0 | 1.7 | 0.00 | 0.00 | 0.00 | 66 | 1013.7 |
| 20260506185053 | 52 | 360 | 0.0 | 1.7 | 0.00 | 0.00 | 0.00 | 64 | 1013.7 |
| 20260506184558 | 53 | 36 | 0.0 | 1.7 | 0.00 | 0.00 | 0.00 | 65 | 1013.7 |
| 20260506184052 | 53 | 14 | 0.0 | 3.5 | 0.00 | 0.00 | 0.00 | 63 | 1013.7 |
| 20260506183549 | 53 | 5 | 0.9 | 3.5 | 0.00 | 0.00 | 0.00 | 63 | 1013.6 |
| 20260506183050 | 53 | 38 | 0.0 | 2.6 | 0.00 | 0.00 | 0.00 | 62 | 1013.7 |
| 20260506182548 | 53 | 360 | 0.9 | 2.6 | 0.00 | 0.00 | 0.00 | 62 | 1013.6 |
| 20260506182048 | 53 | 15 | 0.9 | 2.6 | 0.00 | 0.00 | 0.00 | 63 | 1013.6 |
| 20260506181550 | 53 | 30 | 0.0 | 2.6 | 0.00 | 0.00 | 0.00 | 63 | 1013.5 |
| 20260506181048 | 54 | 34 | 0.0 | 4.3 | 0.00 | 0.00 | 0.00 | 62 | 1013.5 |
| 20260506180548 | 54 | 60 | 0.9 | 4.3 | 0.00 | 0.00 | 0.00 | 62 | 1013.3 |
| 20260506180048 | 54 | 12 | 0.9 | 3.5 | 0.00 | 0.00 | 0.00 | 63 | 1013.3 |
| 20260506175548 | 54 | 24 | 0.0 | 2.6 | 0.00 | 0.00 | 0.00 | 63 | 1013.3 |
| 20260506175052 | 54 | 42 | 0.0 | 2.6 | 0.00 | 0.00 | 0.00 | 62 | 1013.1 |
| 20260506174604 | 54 | 16 | 0.9 | 2.6 | 0.00 | 0.00 | 0.00 | 61 | 1013.1 |
| 20260506174050 | 54 | 77 | 0.0 | 2.6 | 0.00 | 0.00 | 0.00 | 63 | 1013.1 |
| 20260506173547 | 54 | 50 | 0.0 | 3.5 | 0.00 | 0.00 | 0.00 | 64 | 1013.1 |
| 20260506173054 | 54 | 37 | 0.0 | 3.5 | 0.00 | 0.00 | 0.00 | 61 | 1013.0 |
| 20260506172546 | 54 | 65 | 0.0 | 3.5 | 0.00 | 0.00 | 0.00 | 61 | 1013.0 |
| 20260506172047 | 54 | 53 | 0.9 | 3.5 | 0.00 | 0.00 | 0.00 | 61 | 1013.0 |
| 20260506171546 | 54 | 46 | 1.7 | 3.5 | 0.00 | 0.00 | 0.00 | 60 | 1013.0 |
| 20260506171046 | 55 | 28 | 0.0 | 4.3 | 0.00 | 0.00 | 0.00 | 60 | 1013.0 |
| 20260506170547 | 55 | 355 | 0.0 | 4.3 | 0.00 | 0.00 | 0.00 | 60 | 1013.0 |
| 20260506170048 | 55 | 17 | 0.9 | 7.8 | 0.00 | 0.00 | 0.00 | 59 | 1013.0 |
| 20260506165545 | 56 | 9 | 2.6 | 7.8 | 0.00 | 0.00 | 0.00 | 57 | 1012.9 |
| 20260506165045 | 56 | 5 | 0.0 | 1.7 | 0.00 | 0.00 | 0.00 | 54 | 1012.8 |
| 20260506164549 | 57 | 355 | 0.9 | 2.6 | 0.00 | 0.00 | 0.00 | 54 | 1012.9 |
| 20260506164044 | 56 | 26 | 0.0 | 2.6 | 0.00 | 0.00 | 0.00 | 57 | 1012.9 |
| 20260506163544 | 56 | 355 | 0.0 | 1.7 | 0.00 | 0.00 | 0.00 | 56 | 1012.9 |
| 20260506163058 | 56 | 5 | 0.0 | 1.7 | 0.00 | 0.00 | 0.00 | 59 | 1013.0 |
| 20260506162544 | 55 | 344 | 0.0 | 3.5 | 0.00 | 0.00 | 0.00 | 60 | 1013.0 |
| 20260506162044 | 55 | 19 | 0.0 | 3.5 | 0.00 | 0.00 | 0.00 | 59 | 1013.0 |
| 20260506161545 | 55 | 5 | 0.0 | 3.5 | 0.00 | 0.00 | 0.00 | 57 | 1013.0 |
| 20260506161044 | 55 | 22 | 0.0 | 3.5 | 0.00 | 0.00 | 0.00 | 57 | 1013.0 |
| 20260506160544 | 55 | 17 | 0.9 | 2.6 | 0.00 | 0.00 | 0.00 | 59 | 1013.0 |
| 20260506160044 | 55 | 5 | 0.0 | 5.2 | 0.00 | 0.00 | 0.00 | 58 | 1013.0 |
| 20260506155543 | 56 | 11 | 1.7 | 5.2 | 0.00 | 0.00 | 0.00 | 54 | 1013.0 |
| 20260506155043 | 57 | 26 | 0.9 | 2.6 | 0.00 | 0.00 | 0.00 | 54 | 1012.9 |
| 20260506154548 | 58 | 38 | 0.0 | 4.3 | 0.00 | 0.00 | 0.00 | 56 | 1012.9 |
| 20260506154046 | 57 | 9 | 0.9 | 4.3 | 0.00 | 0.00 | 0.00 | 53 | 1013.0 |
| 20260506153543 | 58 | 346 | 0.9 | 2.6 | 0.00 | 0.00 | 0.00 | 53 | 1013.0 |
| 20260506153042 | 57 | 321 | 0.9 | 3.5 | 0.00 | 0.00 | 0.00 | 54 | 1013.0 |
| 20260506152542 | 58 | 18 | 0.9 | 5.2 | 0.00 | 0.00 | 0.00 | 54 | 1013.0 |
| 20260506152043 | 57 | 75 | 0.0 | 5.2 | 0.00 | 0.00 | 0.00 | 57 | 1012.9 |
| 20260506151543 | 58 | 355 | 1.7 | 7.8 | 0.00 | 0.00 | 0.00 | 52 | 1013.0 |
| 20260506151041 | 59 | 10 | 1.7 | 7.8 | 0.00 | 0.00 | 0.00 | 52 | 1013.0 |
| 20260506150541 | 59 | 104 | 1.7 | 4.3 | 0.00 | 0.00 | 0.00 | 53 | 1013.0 |
| 20260506150041 | 61 | 49 | 1.7 | 4.3 | 0.00 | 0.00 | 0.00 | 47 | 1012.9 |
| 20260506145541 | 64 | 20 | 0.0 | 3.5 | 0.00 | 0.00 | 0.00 | 47 | 1012.8 |
| 20260506145040 | 62 | 181 | 0.0 | 4.3 | 0.00 | 0.00 | 0.00 | 47 | 1012.9 |
| 20260506144545 | 62 | 80 | 1.7 | 4.3 | 0.00 | 0.00 | 0.00 | 46 | 1013.0 |
| 20260506144040 | 62 | 83 | 0.9 | 5.2 | 0.00 | 0.00 | 0.00 | 46 | 1012.9 |
| 20260506143540 | 63 | 21 | 0.0 | 5.2 | 0.00 | 0.00 | 0.00 | 43 | 1012.9 |
| 20260506143040 | 61 | 346 | 1.7 | 3.5 | 0.00 | 0.00 | 0.00 | 50 | 1013.0 |
| 20260506142542 | 59 | 33 | 1.7 | 3.5 | 0.00 | 0.00 | 0.00 | 49 | 1013.0 |
| 20260506142041 | 61 | 46 | 0.9 | 4.3 | 0.00 | 0.00 | 0.00 | 46 | 1012.9 |
| 20260506141540 | 61 | 5 | 1.7 | 4.3 | 0.00 | 0.00 | 0.00 | 49 | 1013.0 |
| 20260506141039 | 59 | 54 | 0.0 | 5.2 | 0.00 | 0.00 | 0.00 | 53 | 1013.0 |
| 20260506140542 | 58 | 45 | 0.9 | 5.2 | 0.00 | 0.00 | 0.00 | 49 | 1013.0 |
| 20260506140039 | 59 | 331 | 0.9 | 9.6 | 0.00 | 0.00 | 0.00 | 46 | 1013.1 |
| 20260506135539 | 61 | 16 | 1.7 | 9.6 | 0.00 | 0.00 | 0.00 | 48 | 1013.0 |
| 20260506135039 | 59 | 291 | 0.9 | 5.2 | 0.00 | 0.00 | 0.00 | 49 | 1013.0 |
| 20260506134538 | 59 | 131 | 0.0 | 7.0 | 0.00 | 0.00 | 0.00 | 50 | 1013.0 |
| 20260506134038 | 60 | 355 | 0.9 | 7.0 | 0.00 | 0.00 | 0.00 | 48 | 1013.0 |
| 20260506133538 | 63 | 27 | 2.6 | 7.0 | 0.00 | 0.00 | 0.00 | 44 | 1012.9 |
| 20260506133037 | 64 | 318 | 0.9 | 7.0 | 0.00 | 0.00 | 0.00 | 41 | 1012.9 |
| 20260506132536 | 63 | 27 | 1.7 | 7.0 | 0.00 | 0.00 | 0.00 | 42 | 1012.8 |
| 20260506132036 | 63 | 316 | 2.6 | 5.2 | 0.00 | 0.00 | 0.00 | 45 | 1012.8 |
| 20260506131538 | 63 | 30 | 0.9 | 7.0 | 0.00 | 0.00 | 0.00 | 45 | 1012.9 |
| 20260506131035 | 63 | 360 | 0.9 | 7.0 | 0.00 | 0.00 | 0.00 | 46 | 1012.9 |
| 20260506130536 | 62 | 5 | 2.6 | 7.0 | 0.00 | 0.00 | 0.00 | 47 | 1012.9 |
| 20260506130039 | 62 | 323 | 1.7 | 7.8 | 0.00 | 0.00 | 0.00 | 46 | 1013.1 |
| 20260506125534 | 61 | 61 | 1.7 | 6.1 | 0.00 | 0.00 | 0.00 | 50 | 1013.1 |
| 20260506125033 | 60 | 19 | 0.9 | 5.2 | 0.00 | 0.00 | 0.00 | 51 | 1013.1 |
| 20260506124533 | 60 | 29 | 0.9 | 5.2 | 0.00 | 0.00 | 0.00 | 50 | 1013.1 |
| 20260506124032 | 59 | 5 | 0.9 | 7.0 | 0.00 | 0.00 | 0.00 | 54 | 1013.2 |
| 20260506123532 | 60 | 40 | 1.7 | 7.0 | 0.00 | 0.00 | 0.00 | 51 | 1013.1 |
| 20260506123033 | 60 | 326 | 0.0 | 4.3 | 0.00 | 0.00 | 0.00 | 51 | 1013.2 |
| 20260506122533 | 61 | 48 | 1.7 | 4.3 | 0.00 | 0.00 | 0.00 | 50 | 1013.1 |
| 20260506122034 | 62 | 360 | 0.9 | 5.2 | 0.00 | 0.00 | 0.00 | 50 | 1013.2 |
| 20260506121531 | 61 | 355 | 0.0 | 5.2 | 0.00 | 0.00 | 0.00 | 52 | 1013.2 |
| 20260506121031 | 60 | 68 | 0.9 | 4.3 | 0.00 | 0.00 | 0.00 | 52 | 1013.2 |
| 20260506120531 | 61 | 53 | 0.9 | 4.3 | 0.00 | 0.00 | 0.00 | 52 | 1013.2 |
| 20260506120032 | 61 | 36 | 0.9 | 5.2 | 0.00 | 0.00 | 0.00 | 54 | 1013.3 |
| 20260506115532 | 60 | 360 | 0.0 | 4.3 | 0.00 | 0.00 | 0.00 | 51 | 1013.3 |
| 20260506115029 | 61 | 18 | 0.9 | 5.2 | 0.00 | 0.00 | 0.00 | 52 | 1013.3 |
| 20260506114527 | 60 | 24 | 1.7 | 5.2 | 0.00 | 0.00 | 0.00 | 47 | 1013.3 |
| 20260506114028 | 60 | 21 | 1.7 | 7.0 | 0.00 | 0.00 | 0.00 | 52 | 1013.3 |
| 20260506113527 | 60 | 53 | 0.9 | 7.0 | 0.00 | 0.00 | 0.00 | 53 | 1013.4 |
| 20260506113027 | 60 | 15 | 0.9 | 7.0 | 0.00 | 0.00 | 0.00 | 53 | 1013.4 |
| 20260506112528 | 60 | 40 | 0.9 | 7.0 | 0.00 | 0.00 | 0.00 | 54 | 1013.5 |
| 20260506112028 | 60 | 326 | 1.7 | 5.2 | 0.00 | 0.00 | 0.00 | 53 | 1013.4 |
| 20260506111528 | 59 | 46 | 1.7 | 9.6 | 0.00 | 0.00 | 0.00 | 56 | 1013.5 |
| 20260506111022 | 59 | 343 | 1.7 | 9.6 | 0.00 | 0.00 | 0.00 | 58 | 1013.6 |
| 20260506110522 | 59 | 5 | 1.7 | 7.0 | 0.00 | 0.00 | 0.00 | 54 | 1013.6 |
| 20260506110021 | 59 | 309 | 1.7 | 7.0 | 0.00 | 0.00 | 0.00 | 57 | 1013.6 |
| 20260506105521 | 58 | 355 | 1.7 | 7.0 | 0.00 | 0.00 | 0.00 | 55 | 1013.5 |
| 20260506105019 | 58 | 336 | 1.7 | 7.8 | 0.00 | 0.00 | 0.00 | 56 | 1013.6 |
| 20260506104518 | 57 | 67 | 0.9 | 7.8 | 0.00 | 0.00 | 0.00 | 55 | 1013.6 |
| 20260506104022 | 58 | 324 | 0.9 | 7.0 | 0.00 | 0.00 | 0.00 | 56 | 1013.6 |
| 20260506103516 | 58 | 304 | 2.6 | 5.2 | 0.00 | 0.00 | 0.00 | 54 | 1013.5 |
| 20260506103016 | 58 | 343 | 0.0 | 8.7 | 0.00 | 0.00 | 0.00 | 54 | 1013.6 |
| 20260506102516 | 58 | 31 | 1.7 | 8.7 | 0.00 | 0.00 | 0.00 | 56 | 1013.5 |
| 20260506102016 | 58 | 306 | 0.9 | 5.2 | 0.00 | 0.00 | 0.00 | 57 | 1013.5 |
| 20260506101514 | 58 | 11 | 1.7 | 5.2 | 0.00 | 0.00 | 0.00 | 54 | 1013.5 |
| 20260506101014 | 58 | 31 | 0.9 | 4.3 | 0.00 | 0.00 | 0.00 | 55 | 1013.6 |
| 20260506100512 | 57 | 345 | 0.9 | 5.2 | 0.00 | 0.00 | 0.00 | 58 | 1013.6 |
| 20260506100012 | 57 | 5 | 1.7 | 7.8 | 0.00 | 0.00 | 0.00 | 60 | 1013.6 |
| 20260506095512 | 57 | 43 | 0.9 | 7.8 | 0.00 | 0.00 | 0.00 | 60 | 1013.6 |
| 20260506095015 | 56 | 5 | 1.7 | 7.0 | 0.00 | 0.00 | 0.00 | 57 | 1013.5 |
| 20260506094511 | 56 | 338 | 1.7 | 5.2 | 0.00 | 0.00 | 0.00 | 57 | 1013.5 |
| 20260506094010 | 56 | 24 | 1.7 | 4.3 | 0.00 | 0.00 | 0.00 | 60 | 1013.4 |
| 20260506093512 | 56 | 273 | 1.7 | 4.3 | 0.00 | 0.00 | 0.00 | 60 | 1013.4 |
| 20260506093008 | 56 | 61 | 0.9 | 4.3 | 0.00 | 0.00 | 0.00 | 63 | 1013.4 |
| 20260506092506 | 55 | 23 | 0.9 | 5.2 | 0.00 | 0.00 | 0.00 | 60 | 1013.5 |
| 20260506092007 | 55 | 355 | 1.7 | 7.0 | 0.00 | 0.00 | 0.00 | 62 | 1013.6 |
| 20260506091505 | 54 | 21 | 1.7 | 7.0 | 0.00 | 0.00 | 0.00 | 64 | 1013.5 |
| 20260506091007 | 55 | 279 | 1.7 | 6.1 | 0.00 | 0.00 | 0.00 | 64 | 1013.5 |
| 20260506090503 | 55 | 350 | 1.7 | 4.3 | 0.00 | 0.00 | 0.00 | 64 | 1013.5 |
| 20260506090001 | 54 | 37 | 0.9 | 7.8 | 0.00 | 0.00 | 0.00 | 64 | 1013.6 |
| 20260506085600 | 54 | 355 | 1.7 | 7.8 | 0.00 | 0.00 | 0.00 | 67 | 1013.6 |
| 20260506085059 | 54 | 5 | 0.0 | 4.3 | 0.00 | 0.00 | 0.00 | 68 | 1013.5 |
| 20260506084630 | 53 | 13 | 0.9 | 4.3 | 0.00 | 0.00 | 0.00 | 68 | 1013.5 |
| 20260506084056 | 53 | 339 | 1.7 | 5.2 | 0.00 | 0.00 | 0.00 | 68 | 1013.6 |
| 20260506083556 | 52 | 40 | 1.7 | 5.2 | 0.00 | 0.00 | 0.00 | 68 | 1013.5 |
| 20260506083058 | 52 | 360 | 0.0 | 4.3 | 0.00 | 0.00 | 0.00 | 73 | 1013.6 |
| 20260506082555 | 51 | 46 | 0.9 | 5.2 | 0.00 | 0.00 | 0.00 | 73 | 1013.6 |
| 20260506082053 | 51 | 55 | 0.0 | 5.2 | 0.00 | 0.00 | 0.00 | 74 | 1013.6 |
| 20260506081607 | 50 | 24 | 0.0 | 5.2 | 0.00 | 0.00 | 0.00 | 74 | 1013.5 |
| 20260506081054 | 50 | 66 | 0.9 | 3.5 | 0.00 | 0.00 | 0.00 | 72 | 1013.6 |
| 20260506080552 | 50 | 344 | 0.9 | 3.5 | 0.00 | 0.00 | 0.00 | 72 | 1013.5 |
| 20260506073048 | 49 | 333 | 0.9 | 7.8 | 0.00 | 0.00 | 0.00 | 76 | 1013.5 |
| 20260506072548 | 48 | 63 | 0.9 | 7.8 | 0.00 | 0.00 | 0.00 | 76 | 1013.5 |
| 20260506072047 | 48 | 339 | 1.7 | 7.8 | 0.00 | 0.00 | 0.00 | 76 | 1013.5 |
| 20260506071547 | 48 | 350 | 0.9 | 5.2 | 0.00 | 0.00 | 0.00 | 76 | 1013.5 |
| 20260506071044 | 47 | 336 | 0.9 | 3.5 | 0.00 | 0.00 | 0.00 | 77 | 1013.5 |
| 20260506070543 | 47 | 32 | 0.9 | 3.5 | 0.00 | 0.00 | 0.00 | 77 | 1013.4 |
| 20260506062035 | 47 | 351 | 0.9 | 2.6 | 0.00 | 0.00 | 0.00 | 79 | 1013.2 |
| 20260506061535 | 47 | 269 | 0.9 | 4.3 | 0.00 | 0.00 | 0.00 | 79 | 1013.2 |
| 20260506061034 | 47 | 41 | 0.0 | 2.6 | 0.00 | 0.00 | 0.00 | 80 | 1013.2 |
| 20260506060533 | 46 | 42 | 0.0 | 1.7 | 0.00 | 0.00 | 0.00 | 80 | 1013.1 |
| 20260506051025 | 45 | 350 | 0.0 | 3.5 | 0.00 | 0.00 | 0.00 | 82 | 1012.9 |
| 20260506050522 | 45 | 21 | 0.0 | 7.0 | 0.00 | 0.00 | 0.00 | 81 | 1012.9 |
| 20260506045020 | 45 | 292 | 0.9 | 4.3 | 0.00 | 0.00 | 0.00 | 82 | 1012.9 |
| 20260506044519 | 46 | 40 | 0.0 | 4.3 | 0.00 | 0.00 | 0.00 | 82 | 1012.9 |
| 20260506044018 | 46 | 24 | 0.0 | 4.3 | 0.00 | 0.00 | 0.00 | 82 | 1012.9 |
| 20260506043520 | 46 | 17 | 0.0 | 2.6 | 0.00 | 0.00 | 0.00 | 83 | 1012.9 |
| 20260506043017 | 46 | 16 | 0.0 | 2.6 | 0.00 | 0.00 | 0.00 | 82 | 1012.8 |
| 20260506042517 | 46 | 322 | 0.0 | 2.6 | 0.00 | 0.00 | 0.00 | 82 | 1012.8 |
| 20260506042016 | 46 | 21 | 0.0 | 2.6 | 0.00 | 0.00 | 0.00 | 82 | 1012.8 |
| 20260506041531 | 46 | 50 | 0.9 | 3.5 | 0.00 | 0.00 | 0.00 | 81 | 1012.8 |
| 20260506041014 | 46 | 76 | 0.0 | 5.2 | 0.00 | 0.00 | 0.00 | 82 | 1012.8 |
| 20260506040517 | 46 | 355 | 0.0 | 5.2 | 0.00 | 0.00 | 0.00 | 81 | 1012.8 |
| 20260506040013 | 46 | 5 | 0.9 | 2.6 | 0.00 | 0.00 | 0.00 | 82 | 1012.8 |
| 20260506035516 | 46 | 37 | 0.0 | 2.6 | 0.00 | 0.00 | 0.00 | 83 | 1012.8 |
| 20260506035012 | 46 | 20 | 0.0 | 2.6 | 0.00 | 0.00 | 0.00 | 83 | 1012.7 |
| 20260506034511 | 47 | 344 | 0.0 | 1.7 | 0.00 | 0.00 | 0.00 | 83 | 1012.8 |
| 20260506034013 | 47 | 24 | 0.0 | 2.6 | 0.00 | 0.00 | 0.00 | 83 | 1012.7 |
| 20260506033515 | 47 | 13 | 0.0 | 2.6 | 0.00 | 0.00 | 0.00 | 83 | 1012.7 |
| 20260506033010 | 47 | 329 | 0.0 | 4.3 | 0.00 | 0.00 | 0.00 | 83 | 1012.7 |
| 20260506032509 | 47 | 341 | 0.9 | 4.3 | 0.00 | 0.00 | 0.00 | 83 | 1012.7 |
| 20260506032011 | 47 | 51 | 0.0 | 1.7 | 0.00 | 0.00 | 0.00 | 83 | 1012.7 |
| 20260506031508 | 47 | 345 | 0.0 | 1.7 | 0.00 | 0.00 | 0.00 | 83 | 1012.7 |
| 20260506031009 | 47 | 9 | 0.0 | 1.7 | 0.00 | 0.00 | 0.00 | 82 | 1012.7 |
| 20260506030509 | 47 | 37 | 0.0 | 1.7 | 0.00 | 0.00 | 0.00 | 83 | 1012.7 |
| 20260506030006 | 47 | 23 | 0.0 | 2.6 | 0.00 | 0.00 | 0.00 | 83 | 1012.7 |
| 20260506025509 | 47 | 41 | 0.0 | 2.6 | 0.00 | 0.00 | 0.00 | 83 | 1012.7 |
| 20260506025007 | 48 | 351 | 0.0 | 2.6 | 0.00 | 0.00 | 0.00 | 83 | 1012.7 |
| 20260506024506 | 48 | 38 | 0.0 | 1.7 | 0.00 | 0.00 | 0.00 | 83 | 1012.6 |
| 20260506024005 | 48 | 329 | 0.0 | 1.7 | 0.00 | 0.00 | 0.00 | 83 | 1012.7 |
| 20260506023505 | 48 | 336 | 0.0 | 1.7 | 0.00 | 0.00 | 0.00 | 84 | 1012.7 |
| 20260506023004 | 48 | 9 | 0.0 | 1.7 | 0.00 | 0.00 | 0.00 | 84 | 1012.7 |
| 20260506022506 | 48 | 25 | 0.0 | 1.7 | 0.00 | 0.00 | 0.00 | 83 | 1012.7 |
| 20260506022004 | 48 | 347 | 0.0 | 2.6 | 0.00 | 0.00 | 0.00 | 83 | 1012.7 |
| 20260506021503 | 48 | 39 | 0.0 | 4.3 | 0.00 | 0.00 | 0.00 | 83 | 1012.9 |
| 20260506021002 | 48 | 49 | 0.0 | 3.5 | 0.00 | 0.00 | 0.00 | 83 | 1012.7 |
| 20260506020506 | 48 | 37 | 0.0 | 1.7 | 0.00 | 0.00 | 0.00 | 83 | 1012.8 |
| 20260506020002 | 48 | 350 | 0.0 | 0.0 | 0.00 | 0.00 | 0.00 | 83 | 1012.9 |
| 20260506015502 | 48 | 355 | 0.0 | 2.6 | 0.00 | 0.00 | 0.00 | 83 | 1012.9 |
| 20260506015005 | 48 | 57 | 0.0 | 2.6 | 0.00 | 0.00 | 0.00 | 83 | 1012.9 |
| 20260506014502 | 48 | 29 | 0.0 | 1.7 | 0.00 | 0.00 | 0.00 | 83 | 1012.8 |
| 20260506014001 | 47 | 360 | 0.0 | 2.6 | 0.00 | 0.00 | 0.00 | 83 | 1012.9 |
| 20260506013501 | 48 | 38 | 0.0 | 2.6 | 0.00 | 0.00 | 0.00 | 83 | 1012.8 |
| 20260506013001 | 48 | 19 | 0.0 | 2.6 | 0.00 | 0.00 | 0.00 | 82 | 1012.8 |
| 20260506012603 | 48 | 9 | 0.0 | 2.6 | 0.00 | 0.00 | 0.00 | 82 | 1012.7 |
| 20260506012058 | 48 | 30 | 0.9 | 4.3 | 0.00 | 0.00 | 0.00 | 81 | 1012.8 |
| 20260506011607 | 48 | 13 | 0.0 | 4.3 | 0.00 | 0.00 | 0.00 | 81 | 1012.8 |
| 20260506011058 | 48 | 55 | 1.7 | 4.3 | 0.00 | 0.00 | 0.00 | 81 | 1012.8 |
| 20260506010557 | 48 | 40 | 0.9 | 4.3 | 0.00 | 0.00 | 0.00 | 81 | 1012.9 |
| 20260506010057 | 48 | 15 | 1.7 | 4.3 | 0.00 | 0.00 | 0.00 | 80 | 1012.9 |
| 20260506005556 | 49 | 24 | 0.9 | 4.3 | 0.00 | 0.00 | 0.00 | 80 | 1012.9 |
| 20260506005056 | 49 | 336 | 0.9 | 4.3 | 0.00 | 0.00 | 0.00 | 80 | 1012.9 |
| 20260506004559 | 49 | 31 | 1.7 | 3.5 | 0.00 | 0.00 | 0.00 | 79 | 1013.0 |
| 20260506004054 | 49 | 15 | 0.9 | 3.5 | 0.00 | 0.00 | 0.00 | 79 | 1013.0 |
| 20260506003553 | 49 | 51 | 0.0 | 4.3 | 0.00 | 0.00 | 0.00 | 78 | 1013.0 |
| 20260506003053 | 49 | 34 | 0.9 | 5.2 | 0.00 | 0.00 | 0.00 | 78 | 1013.0 |
| 20260506002552 | 50 | 33 | 1.7 | 5.2 | 0.00 | 0.00 | 0.00 | 77 | 1013.0 |
| 20260506002051 | 50 | 39 | 0.9 | 5.2 | 0.00 | 0.00 | 0.00 | 77 | 1012.9 |
| 20260506001556 | 50 | 10 | 0.9 | 5.2 | 0.00 | 0.00 | 0.00 | 76 | 1012.9 |
| 20260506001050 | 50 | 49 | 1.7 | 7.0 | 0.00 | 0.00 | 0.00 | 76 | 1012.8 |
| 20260506000550 | 50 | 346 | 0.9 | 7.8 | 0.00 | 0.00 | 0.00 | 76 | 1012.9 |
| 20260506000056 | 50 | 9 | 1.7 | 5.2 | 0.00 | 0.00 | 0.00 | 75 | 1012.9 |
| 20260505235547 | 50 | 46 | 0.9 | 7.0 | 0.00 | 0.00 | 0.00 | 76 | 1012.8 |
| 20260505235047 | 51 | 337 | 1.7 | 7.0 | 0.00 | 0.00 | 0.00 | 75 | 1012.9 |
| 20260505234547 | 51 | 18 | 0.9 | 8.7 | 0.00 | 0.00 | 0.00 | 75 | 1012.9 |
| 20260505234044 | 51 | 17 | 2.6 | 8.7 | 0.00 | 0.00 | 0.00 | 75 | 1012.9 |
| 20260505233548 | 51 | 53 | 2.6 | 7.0 | 0.00 | 0.00 | 0.00 | 75 | 1012.8 |
| 20260505233050 | 51 | 57 | 1.7 | 5.2 | 0.00 | 0.00 | 0.00 | 75 | 1012.8 |
| 20260505232543 | 51 | 82 | 1.7 | 5.2 | 0.00 | 0.00 | 0.00 | 75 | 1012.8 |
| 20260505232045 | 51 | 42 | 1.7 | 5.2 | 0.00 | 0.00 | 0.00 | 75 | 1012.8 |
| 20260505231545 | 51 | 63 | 1.7 | 7.8 | 0.00 | 0.00 | 0.00 | 75 | 1012.8 |
| 20260505231041 | 52 | 11 | 2.6 | 7.8 | 0.00 | 0.00 | 0.00 | 75 | 1012.8 |
| 20260505230540 | 52 | 20 | 1.7 | 7.8 | 0.00 | 0.00 | 0.00 | 75 | 1012.8 |
| 20260505230107 | 52 | 37 | 1.7 | 5.2 | 0.00 | 0.00 | 0.00 | 75 | 1012.8 |
| 20260505225539 | 52 | 74 | 0.9 | 5.2 | 0.00 | 0.00 | 0.00 | 74 | 1012.8 |
| 20260505225039 | 52 | 111 | 1.7 | 8.7 | 0.00 | 0.00 | 0.00 | 74 | 1012.8 |
| 20260505224539 | 52 | 13 | 0.9 | 8.7 | 0.00 | 0.00 | 0.00 | 74 | 1012.7 |
| 20260505224037 | 52 | 34 | 0.9 | 7.0 | 0.00 | 0.00 | 0.00 | 74 | 1012.7 |
| 20260505223539 | 52 | 327 | 0.0 | 5.2 | 0.00 | 0.00 | 0.00 | 73 | 1012.7 |
| 20260505223042 | 53 | 44 | 0.9 | 7.0 | 0.00 | 0.00 | 0.00 | 73 | 1012.8 |
| 20260505222538 | 53 | 355 | 1.7 | 7.0 | 0.00 | 0.00 | 0.00 | 73 | 1012.7 |